Theta_e
326 332 336 338 338 335 336 336 337 338 344 347 348 348 349 351 350 348 348 349 348 348 348 348 346 347 346 346 345 344 344 344 345 345 345 345 343 342 344 345 346 339 343 343
328 333 334 331 333 334 334 335 336 338 345 347 347 348 346 351 351 350 348 347 349 349 349 347 347 348 348 348 348 348 346 343 344 345 346 345 346 346 346 347 343 344 344 343
327 329 327 331 331 333 333 335 335 335 346 346 348 345 349 348 350 350 350 349 347 348 349 348 347 347 348 349 349 348 347 345 342 345 346 345 346 347 340 337 337 341 340 338
324 323 328 329 331 333 335 331 332 333 337 333 343 337 343 347 350 350 349 350 349 349 348 348 346 346 347 347 348 348 348 347 343 342 346 346 346 344 344 338 336 342 341 339
322 325 324 327 330 329 333 330 329 331 337 340 342 341 340 343 344 347 347 348 349 348 348 347 347 346 346 346 347 345 345 345 343 342 345 347 347 347 344 337 338 340 340 339
321 319 322 326 326 328 326 327 328 337 340 337 339 340 339 344 347 344 343 345 347 348 348 347 346 347 347 346 347 346 345 345 343 343 344 346 347 345 344 340 338 339 341 342
321 322 321 322 323 323 324 325 333 334 339 337 336 343 339 340 341 340 340 342 344 346 347 348 347 346 347 347 347 347 346 346 345 343 344 345 348 346 343 342 342 342 344 343
321 321 321 321 324 323 324 325 331 337 335 336 339 343 339 341 338 338 339 340 341 343 345 348 346 346 347 348 347 346 346 345 345 344 343 346 348 348 345 344 344 344 345 343
321 321 319 319 321 323 325 326 324 327 326 331 333 339 338 339 340 340 341 342 343 342 344 346 346 346 347 347 347 346 346 346 345 346 346 347 349 349 348 346 346 345 344 342
320 322 321 321 321 320 324 325 325 327 330 330 331 334 334 339 340 337 343 343 344 344 344 345 345 346 347 347 347 346 346 346 346 348 349 349 350 350 349 347 346 342 342 343
318 318 324 319 322 323 323 323 323 324 326 328 330 329 335 340 338 336 335 342 344 345 345 342 343 343 344 347 347 347 347 346 347 348 349 349 348 351 349 346 344 344 344 344
320 320 323 324 319 317 321 323 324 324 326 326 327 327 328 331 332 333 336 338 342 343 345 345 344 343 344 346 347 347 347 346 346 347 348 348 351 350 346 345 346 345 343 338
326 326 328 327 320 320 321 321 322 322 322 326 325 326 331 327 331 336 336 339 341 342 342 344 344 344 345 346 347 347 347 345 346 347 348 352 350 348 346 345 344 341 335 326
324 321 331 332 331 329 330 325 320 322 324 325 324 326 330 330 337 339 332 339 340 340 343 345 345 342 343 347 347 346 345 345 347 348 352 351 349 346 344 343 339 332 324 315
327 330 327 328 326 324 326 325 321 321 324 325 326 327 331 332 340 340 336 335 340 342 345 346 347 343 344 348 348 346 346 347 348 351 351 349 345 342 341 337 332 325 316 311
327 331 330 331 329 329 330 327 322 321 322 323 324 325 333 340 341 343 343 338 340 342 345 347 349 349 348 348 347 347 347 347 350 346 340 348 343 341 338 334 328 320 312 308
329 329 331 331 331 330 332 332 333 330 338 331 330 335 342 344 344 343 344 341 341 343 345 347 350 349 346 348 347 347 347 348 350 345 347 347 342 341 337 332 326 315 309 305
330 329 329 331 331 330 330 334 332 340 342 341 342 343 344 344 344 343 341 337 337 345 346 347 350 351 348 347 347 347 347 348 347 344 346 345 342 340 336 331 323 312 307 305
326 329 329 332 330 329 331 333 337 340 340 339 340 340 344 346 345 340 339 345 344 342 347 346 348 351 347 347 347 347 348 352 343 344 346 344 341 339 335 331 319 310 307 306
324 327 330 332 332 329 329 334 333 335 342 337 338 340 343 347 349 348 347 347 344 347 349 351 351 350 348 348 348 347 349 347 342 345 344 343 341 337 334 329 315 309 308 307
333 332 334 334 334 331 332 333 333 342 340 335 335 336 337 345 346 347 350 349 347 348 352 353 351 350 349 348 348 349 351 344 342 344 343 342 338 335 334 324 313 308 308 308
333 335 336 333 335 334 333 334 338 336 335 334 334 334 334 335 340 350 351 350 350 351 351 350 350 350 349 349 350 351 346 344 344 344 343 341 336 334 330 318 311 308 307 308
337 335 336 336 336 332 332 332 333 333 334 333 333 334 334 334 335 348 350 349 352 351 351 351 348 348 346 347 349 352 348 344 340 343 342 338 335 333 325 315 310 309 311 313
330 331 338 336 333 333 329 329 331 333 333 330 333 333 334 334 333 346 350 349 351 347 348 348 348 348 345 345 351 351 338 336 337 343 340 337 335 330 320 313 310 311 314 318
322 331 335 335 333 330 328 328 328 327 326 322 330 330 333 334 335 344 348 349 348 349 348 347 348 349 348 347 349 347 338 337 338 341 340 336 333 325 316 311 311 313 315 315
316 318 322 321 323 324 324 320 322 321 321 319 331 326 323 333 338 340 346 348 348 347 347 346 347 348 348 349 343 341 338 339 343 340 337 334 330 321 314 312 311 311 312 316
Wind_Speed
1 5 9 12 7 4 3 2 6 8 5 8 15 14 9 23 20 20 22 22 23 25 23 21 22 22 21 20 19 18 16 15 14 12 9 7 6 8 7 4 4 3 2 3
4 12 10 6 7 5 4 2 3 6 1 8 6 13 9 19 26 28 25 25 26 24 21 22 24 24 25 22 22 21 18 16 15 14 10 7 6 6 6 2 2 1 2 3
10 5 5 8 7 7 5 5 3 5 1 6 8 8 5 10 20 24 26 25 24 25 23 22 23 25 24 25 24 24 21 17 15 16 14 11 7 8 8 7 4 5 2 2
5 2 4 6 7 8 14 10 6 4 3 5 2 8 11 6 12 19 29 31 30 28 26 22 23 24 25 23 20 20 22 21 19 17 17 14 8 8 10 13 12 10 6 4
4 4 6 7 8 8 4 5 5 4 3 3 4 4 9 1 7 17 26 33 34 30 29 26 26 23 23 22 24 16 16 20 21 22 19 12 11 10 13 12 11 8 8 6
1 1 2 2 2 9 5 3 2 2 1 6 2 7 11 4 7 2 9 28 34 34 30 31 29 24 22 21 25 23 17 17 20 24 20 15 14 11 12 12 13 11 9 9
2 7 3 5 5 3 3 6 7 7 6 8 2 5 11 15 14 11 10 11 27 33 32 31 31 31 27 26 26 28 25 19 19 22 23 21 16 13 12 12 10 12 10 9
3 6 8 8 15 10 11 14 9 14 10 10 4 6 6 12 17 10 7 10 15 24 31 31 35 34 32 29 30 30 29 25 19 21 23 24 20 15 14 13 11 12 12 9
4 5 3 5 3 8 6 7 4 5 1 4 3 5 11 13 16 9 8 9 12 18 26 30 31 32 32 32 31 30 29 27 21 19 22 25 24 18 15 15 13 12 11 12
1 5 6 2 5 3 5 8 5 2 7 11 5 3 6 5 9 5 5 11 12 16 22 24 28 31 27 30 32 31 28 27 22 20 22 23 23 20 15 14 13 13 13 12
2 3 2 2 8 12 6 4 1 2 3 7 9 5 9 11 11 10 6 11 14 16 21 27 30 29 29 28 31 32 30 29 24 20 23 25 22 19 17 15 14 13 12 10
2 1 5 6 0 5 8 14 13 9 10 3 4 8 8 11 10 10 14 6 14 17 20 23 26 26 27 29 31 34 33 30 24 20 23 22 20 17 16 15 14 13 11 9
1 2 4 3 4 3 3 3 10 6 3 11 11 7 4 2 6 10 15 5 9 18 20 23 26 28 28 29 32 35 34 30 24 19 24 21 19 17 16 16 14 11 8 8
3 3 2 3 6 6 8 7 7 15 10 14 12 14 11 7 7 9 13 9 9 20 21 24 27 31 30 30 31 36 34 28 22 23 22 19 16 15 16 14 12 9 8 6
3 6 4 8 10 5 7 11 8 15 13 10 12 12 7 4 12 12 13 12 11 19 23 26 26 29 30 29 29 35 35 32 28 23 17 18 15 15 15 14 10 8 7 7
1 5 3 7 5 8 11 6 8 12 13 10 11 13 3 18 13 12 12 12 17 19 22 22 21 24 29 31 35 41 42 37 31 30 26 23 18 18 17 15 12 9 9 9
4 4 4 8 4 11 10 3 6 4 4 3 6 5 12 15 13 14 14 14 15 18 19 24 25 28 33 35 39 44 43 36 33 27 27 24 22 21 18 16 11 9 10 11
9 5 3 8 7 10 2 4 1 2 1 1 4 9 12 16 21 19 10 11 13 16 22 26 27 28 33 37 39 41 40 39 32 29 29 26 25 23 19 15 12 11 12 13
16 7 5 5 7 7 7 6 4 3 3 2 5 9 14 19 13 5 10 17 15 15 19 24 26 28 33 39 40 43 44 39 30 33 33 27 26 22 19 17 15 15 15 15
8 5 4 2 7 8 3 4 2 7 6 2 4 7 12 16 7 5 29 25 17 9 13 19 23 26 31 35 37 44 45 37 36 35 29 24 26 23 19 15 16 16 17 17
3 3 9 8 7 7 2 9 2 6 3 6 8 10 13 7 7 22 23 20 14 3 8 13 20 26 29 33 38 42 39 34 35 31 25 25 25 22 16 15 17 18 20 21
4 4 4 2 5 9 3 8 3 6 7 15 10 11 15 16 16 16 15 15 12 3 6 12 19 24 29 32 37 37 33 29 22 24 29 27 25 22 18 17 19 21 21 22
5 5 3 5 2 3 6 7 6 7 12 10 14 16 16 18 17 17 13 13 9 4 6 9 16 23 24 29 40 44 32 18 11 26 26 25 24 23 18 18 21 23 24 21
4 3 4 2 4 6 4 5 6 7 10 20 15 18 17 16 16 14 10 9 5 1 7 12 17 19 23 33 41 34 21 13 16 32 31 26 26 24 20 20 23 24 24 20
5 4 4 6 10 11 7 7 5 11 14 20 15 15 17 15 15 11 9 5 4 3 8 12 16 18 23 31 36 31 19 22 26 38 31 31 28 24 21 22 24 23 21 18
14 14 10 12 13 7 11 15 12 14 14 18 17 20 17 15 13 10 9 7 3 4 5 11 15 16 19 27 31 30 27 25 32 37 34 32 29 25 22 24 25 22 20 20
Wind_Direction
68 216 214 219 200 160 190 199 302 298 211 225 238 256 211 188 201 209 205 207 209 215 220 222 227 226 226 224 220 217 213 213 218 221 214 205 186 177 175 211 260 254 304 1
162 221 220 123 170 199 206 239 297 293 254 220 285 265 236 195 203 207 209 211 212 222 217 222 226 231 231 228 228 225 221 220 221 223 221 203 187 173 171 156 204 84 294 346
202 199 170 182 166 200 223 246 240 290 184 254 298 282 197 207 216 214 222 222 224 221 223 222 225 230 235 234 230 228 227 221 219 215 218 208 203 194 199 239 238 299 247 255
226 333 186 197 214 206 264 211 246 259 254 314 314 301 299 183 205 212 217 220 223 223 226 226 224 228 230 230 234 230 228 226 220 217 216 216 204 216 231 241 249 236 239 239
140 169 185 216 230 186 268 169 249 257 243 249 198 252 277 253 258 226 217 217 220 218 220 222 226 228 233 231 219 218 214 217 218 218 214 217 213 226 230 243 225 239 241 257
209 289 247 176 292 213 128 174 82 76 196 260 25 234 283 281 246 337 213 222 219 217 219 224 228 232 231 229 217 212 209 211 214 216 216 218 216 221 227 224 243 245 255 269
297 234 204 176 235 254 202 215 239 231 225 257 69 204 253 286 272 279 281 228 217 216 215 218 221 224 228 227 219 215 213 215 214 219 221 223 219 221 231 230 240 248 258 256
266 255 206 178 215 219 216 229 230 244 236 246 139 216 247 266 284 274 259 251 223 212 211 214 220 221 223 225 218 214 214 213 215 215 218 221 220 225 226 229 240 250 247 255
197 252 283 228 222 207 163 209 282 234 51 260 229 247 279 267 273 264 250 223 206 202 204 211 216 221 223 221 219 214 213 210 214 210 213 216 221 228 235 231 243 240 247 262
129 272 248 224 182 62 248 141 193 224 236 246 225 246 247 253 267 286 265 217 202 197 198 204 207 214 219 220 219 215 211 209 207 205 207 211 217 226 231 231 236 235 248 248
197 232 200 224 204 218 204 213 90 223 241 256 259 245 224 241 255 277 273 246 208 196 197 201 208 215 217 216 215 212 208 204 203 202 205 206 214 220 225 224 232 236 241 244
11 242 265 260 32 315 278 240 232 237 223 244 273 249 288 249 279 279 278 260 219 206 198 196 198 202 210 211 210 208 203 200 200 203 205 206 208 211 228 227 224 228 232 246
154 254 284 267 135 132 252 232 235 229 245 228 244 248 251 296 300 291 284 305 226 210 198 196 198 202 204 206 205 200 197 197 199 208 197 198 201 208 217 227 224 220 223 244
218 210 263 293 298 302 282 264 242 242 234 242 239 256 267 247 309 323 303 280 219 207 207 200 197 202 203 200 198 195 192 196 196 191 193 199 198 212 222 213 204 215 230 231
325 266 206 273 276 227 262 266 260 228 244 230 264 210 259 324 323 319 301 282 230 201 200 203 197 197 195 191 187 191 194 188 191 192 198 197 203 218 203 199 206 220 226 209
342 280 231 285 217 268 293 274 244 238 243 253 265 274 341 316 311 312 306 275 242 217 203 198 196 193 187 190 190 191 192 194 190 200 186 190 199 196 195 202 203 208 211 193
278 271 252 267 313 308 265 337 272 235 227 232 247 300 322 315 311 317 311 295 263 235 210 198 197 198 195 194 198 195 195 189 192 196 192 182 183 191 196 203 202 204 187 185
246 250 271 275 299 247 132 96 263 260 100 338 307 316 313 304 302 306 327 304 277 242 219 209 203 198 199 201 201 197 190 192 192 195 192 186 185 182 191 200 201 190 179 179
222 216 242 251 236 298 270 190 174 236 205 332 336 338 329 324 306 187 21 352 329 263 238 224 212 203 202 206 202 192 188 188 190 197 194 187 186 187 190 197 195 186 183 183
161 209 235 200 238 260 325 45 50 145 235 84 2 352 342 346 341 350 331 332 324 281 225 214 205 202 209 206 198 190 190 189 195 198 192 192 191 188 188 194 193 189 187 184
194 182 219 224 247 254 347 340 354 199 52 1 357 349 345 351 324 312 331 341 338 283 205 192 198 211 210 206 191 191 187 195 200 192 192 192 197 193 183 192 194 189 186 187
246 237 217 191 228 251 24 119 216 321 20 313 333 326 319 320 331 337 351 2 11 55 172 203 202 207 210 203 184 180 188 195 198 195 195 190 192 195 192 196 191 189 190 189
247 229 272 229 262 16 337 321 305 297 281 314 319 322 314 318 329 333 357 13 15 1 176 187 191 206 206 191 183 189 183 168 170 229 199 198 195 203 199 197 195 192 189 187
236 185 244 271 244 228 297 297 311 297 314 337 320 335 320 313 323 320 339 9 4 297 190 202 206 206 191 192 192 188 166 195 213 215 197 200 205 206 201 196 199 198 196 190
276 168 239 251 264 276 261 227 286 306 313 323 341 339 330 326 322 313 307 344 335 260 216 219 215 207 199 197 193 181 200 200 185 201 200 202 206 207 203 201 199 199 201 197
228 243 241 254 266 253 254 300 291 298 302 316 303 313 320 328 326 318 291 284 276 283 273 245 234 224 201 184 185 199 210 202 192 191 194 202 202 202 202 198 199 204 199 187